Location: PACMO
(41.3967°N, 90.3760°W)
Time: 16:39:40
(UTC-06:00)

NOAA 19 - Visible Passes

Search period start: 27 February 2015 00:00
Search period end: 09 March 2015 01:00
Orbit: 842 x 864 km, 99.0° (Epoch: 27 February)

Date Brightness Start Highest point End Pass type
(mag) Time Alt. Az. Time Alt. Az. Time Alt. Az.
01 Mar 7.7 03:41:34 10° NNW 03:41:35 10° NNW 03:41:35 10° NNW visible
02 Mar 7.7 03:30:08 10° N 03:30:23 11° N 03:30:23 11° N visible
03 Mar 7.7 03:18:45 10° N 03:19:11 12° N 03:19:11 12° N visible
04 Mar 7.7 03:07:25 10° N 03:07:58 13° N 03:07:58 13° N visible
05 Mar 7.7 02:56:08 10° N 02:56:46 14° N 02:56:46 14° N visible
06 Mar 7.7 02:44:52 10° N 02:45:35 14° N 02:45:35 14° N visible
07 Mar 7.7 02:33:40 10° NNE 02:34:23 14° NNE 02:34:23 14° NNE visible
08 Mar 7.8 03:22:30 10° NNE 03:23:11 14° NNE 03:23:11 14° NNE visible
08 Mar 7.4 05:04:47 10° NNW 05:05:14 11° NNW 05:05:14 11° NNW visible
